Satellite: PO-28
Catalog number: 22829
Epoch time:      08086.89707287
Element set:    0907
Inclination:      098.3567 deg
RA of node:       052.1084 deg
Eccentricity:    0.0010575
Arg of perigee:   109.8541 deg
Mean anomaly:     250.3775 deg
Mean motion:   14.30183930 rev/day
Decay rate:        7.0e-08 rev/day^2
Epoch rev:           75636
Checksum:              330

Satellite: GO-32
Catalog number: 25397
Epoch time:      08087.76518834
Element set:     560
Inclination:      098.3740 deg
RA of node:       126.9143 deg
Eccentricity:    0.0002088
Arg of perigee:   107.2719 deg
Mean anomaly:     252.8682 deg
Mean motion:   14.23141037 rev/day
Decay rate:        6.4e-07 rev/day^2
Epoch rev:           50463
Checksum:              307

Satellite: MO-46
Catalog number: 26548
Epoch time:      08086.91132095
Element set:    0058
Inclination:      064.5595 deg
RA of node:       024.8574 deg
Eccentricity:    0.0020623
Arg of perigee:   335.5653 deg
Mean anomaly:     024.4448 deg
Mean motion:   14.83239367 rev/day
Decay rate:       -5.4e-07 rev/day^2
Epoch rev:           40561
Checksum:              316

Satellite: NO-44
Catalog number: 26931
Epoch time:      08087.49738642
Element set:     839
Inclination:      067.0519 deg
RA of node:       135.1001 deg
Eccentricity:    0.0005454
Arg of perigee:   275.6827 deg
Mean anomaly:     084.3647 deg
Mean motion:   14.29517387 rev/day
Decay rate:       1.87e-06 rev/day^2
Epoch rev:           33873
Checksum:              338

Satellite: SO-50
Catalog number: 27607
Epoch time:      08086.90073036
Element set:    0564
Inclination:      064.5600 deg
RA of node:       303.5399 deg
Eccentricity:    0.0082509
Arg of perigee:   295.7999 deg
Mean anomaly:     063.4588 deg
Mean motion:   14.71338811 rev/day
Decay rate:        3.2e-07 rev/day^2
Epoch rev:           28286
Checksum:              332

Satellite: CO-55
Catalog number: 27844
Epoch time:      08086.60678270
Element set:     267
Inclination:      098.7180 deg
RA of node:       096.0132 deg
Eccentricity:    0.0010191
Arg of perigee:   359.8749 deg
Mean anomaly:     000.2416 deg
Mean motion:   14.20567881 rev/day
Decay rate:        5.2e-07 rev/day^2
Epoch rev:           24571
Checksum:              311

Satellite: CO-57
Catalog number: 27848
Epoch time:      08086.59380015
Element set:     219
Inclination:      098.7192 deg
RA of node:       095.1145 deg
Eccentricity:    0.0009933
Arg of perigee:   003.2772 deg
Mean anomaly:     356.8459 deg
Mean motion:   14.20378783 rev/day
Decay rate:        2.7e-07 rev/day^2
Epoch rev:           24568
Checksum:              340

Satellite: AO-51
Catalog number: 28375
Epoch time:      08086.67423562
Element set:      62
Inclination:      098.0802 deg
RA of node:       115.8559 deg
Eccentricity:    0.0085205
Arg of perigee:   043.2162 deg
Mean anomaly:     317.5672 deg
Mean motion:   14.40601063 rev/day
Decay rate:        1.3e-07 rev/day^2
Epoch rev:           19652
Checksum:              289

Satellite: CO-56
Catalog number: 28941
Epoch time:      08087.79098419
Element set:     943
Inclination:      098.1013 deg
RA of node:       187.6791 deg
Eccentricity:    0.0180019
Arg of perigee:   336.3550 deg
Mean anomaly:     022.9795 deg
Mean motion:   15.52589332 rev/day
Decay rate:     3.4750e-04 rev/day^2
Epoch rev:           11739
Checksum:              351

Satellite: CP4
Catalog number: 31122
Epoch time:      08087.19568073
Element set:     298
Inclination:      098.0474 deg
RA of node:       155.8056 deg
Eccentricity:    0.0084988
Arg of perigee:   222.6100 deg
Mean anomaly:     136.8488 deg
Mean motion:   14.55102232 rev/day
Decay rate:       5.50e-06 rev/day^2
Epoch rev:            5015
Checksum:              299

Satellite: CP3
Catalog number: 31128
Epoch time:      08087.39621400
Element set:     291
Inclination:      098.0463 deg
RA of node:       154.2664 deg
Eccentricity:    0.0102105
Arg of perigee:   227.1398 deg
Mean anomaly:     132.1196 deg
Mean motion:   14.51927084 rev/day
Decay rate:       -4.8e-07 rev/day^2
Epoch rev:            5006
Checksum:              275

Satellite: LIBERT
Catalog number: 31129
Epoch time:      08087.16863407
Element set:     849
Inclination:      098.0454 deg
RA of node:       154.0818 deg
Eccentricity:    0.0101841
Arg of perigee:   228.0792 deg
Mean anomaly:     131.1658 deg
Mean motion:   14.52015262 rev/day
Decay rate:       3.37e-06 rev/day^2
Epoch rev:            5001
Checksum:              278

/EX
SB KEPS @ AMSAT  $ORB08087.W
Orbital Elements  08087.WEATHER

HR AMSAT ORBITAL ELEMENTS FOR WEATHER SATELLITES
FROM WA5QGD FORT WORTH,TX March 27, 2008
Send Subscribe/unsubscribe to KEPS at 
http://www.amsat.org/mailman/listinfo/keps
BID: ORB08087.W
TO ALL RADIO AMATEURS BT

Satellite: NOAA-10
Catalog number: 16969
Epoch time:      08087.06843563
Element set:      59
Inclination:      098.7288 deg
RA of node:       109.1787 deg
Eccentricity:    0.0013203
Arg of perigee:   062.4793 deg
Mean anomaly:     297.7718 deg
Mean motion:   14.27354496 rev/day
Decay rate:        3.2e-07 rev/day^2
Epoch rev:           11972
Checksum:              341

